IBS18UC GMMX-LEMD

Flight info

Callsign IBS18UC
Flight time 1h 30m
Altitude 38000
Route OBOGA UG850 VALBA UZ801 TOLSI UG5 KORIS L27 VJF N10 HIJ M30 PARKA Z165 SOTUK
Aircraft A320/M-SDE3FGHIRWY/LB1

Departure

Time 2026-05-05 16:59
Airport Marrakesh Menara Airport (GMMX)

Arrival

Time 2026-05-05 18:29
Airport Adolfo Suárez Madrid–Barajas Airport (LEMD)
Time Latitude Longitude Altitude Speed Heading
2026-05-05 16:45 31.60130 -8.02317 1549 ft 0 kts 276°
2026-05-05 16:48 31.60130 -8.02315 1549 ft 2 kts 276°
2026-05-05 16:49 31.60126 -8.02284 1549 ft 4 kts 284°
2026-05-05 16:49 31.60117 -8.02254 1549 ft 4 kts 298°
2026-05-05 16:49 31.60101 -8.02231 1549 ft 4 kts 331°
2026-05-05 16:49 31.60086 -8.02225 1549 ft 0 kts
2026-05-05 16:52 31.60088 -8.02225 1549 ft 0 kts
2026-05-05 16:53 31.60090 -8.02224 1549 ft 1 kts
2026-05-05 16:53 31.60121 -8.02220 1549 ft 10 kts
2026-05-05 16:53 31.60223 -8.02209 1549 ft 16 kts
2026-05-05 16:53 31.60340 -8.02198 1549 ft 17 kts
2026-05-05 16:54 31.60399 -8.02292 1549 ft 17 kts 277°
2026-05-05 16:54 31.60411 -8.02436 1549 ft 18 kts 276°
2026-05-05 16:54 31.60425 -8.02589 1549 ft 20 kts 276°
2026-05-05 16:54 31.60439 -8.02755 1549 ft 21 kts 275°
2026-05-05 16:55 31.60454 -8.02931 1549 ft 22 kts 276°
2026-05-05 16:55 31.60471 -8.03115 1549 ft 23 kts 276°
2026-05-05 16:55 31.60488 -8.03308 1547 ft 24 kts 276°
2026-05-05 16:55 31.60505 -8.03505 1548 ft 25 kts 276°
2026-05-05 16:56 31.60524 -8.03707 1548 ft 25 kts 275°
2026-05-05 16:56 31.60540 -8.03910 1548 ft 25 kts 276°
2026-05-05 16:56 31.60560 -8.04117 1540 ft 25 kts 276°
2026-05-05 16:56 31.60578 -8.04325 1548 ft 26 kts 275°
2026-05-05 16:57 31.60596 -8.04535 1547 ft 26 kts 276°
2026-05-05 16:57 31.60614 -8.04743 1547 ft 26 kts 276°
2026-05-05 16:57 31.60633 -8.04957 1547 ft 27 kts 276°
2026-05-05 16:57 31.60652 -8.05168 1547 ft 23 kts 275°
2026-05-05 16:58 31.60707 -8.05256 1544 ft 14 kts
2026-05-05 16:58 31.60810 -8.05228 1530 ft 15 kts 45°
2026-05-05 16:58 31.60820 -8.05110 1532 ft 18 kts 96°
2026-05-05 16:58 31.60785 -8.04696 1529 ft 87 kts 95°
2026-05-05 16:59 31.60700 -8.03743 1537 ft 146 kts 96°
2026-05-05 16:59 31.60581 -8.02396 1767 ft 174 kts 100°
2026-05-05 16:59 31.60143 -8.01077 2470 ft 174 kts 119°
2026-05-05 16:59 31.59591 -7.99819 3313 ft 174 kts 113°
2026-05-05 17:00 31.59065 -7.98467 3902 ft 193 kts 112°
2026-05-05 17:00 31.58493 -7.96930 4482 ft 218 kts 112°
2026-05-05 17:00 31.57845 -7.95206 5054 ft 244 kts 113°
2026-05-05 17:00 31.57140 -7.93332 5854 ft 261 kts 114°
2026-05-05 17:01 31.56405 -7.91364 6940 ft 265 kts 112°
2026-05-05 17:01 31.56054 -7.89222 7758 ft 272 kts 88°
2026-05-05 17:01 31.56468 -7.87048 8486 ft 278 kts 63°
2026-05-05 17:01 31.57614 -7.85222 9185 ft 281 kts 38°
2026-05-05 17:02 31.59301 -7.84090 9894 ft 281 kts 12°
2026-05-05 17:02 31.61221 -7.83844 10559 ft 276 kts 350°
2026-05-05 17:02 31.63122 -7.83993 11275 ft 279 kts 349°
2026-05-05 17:02 31.65069 -7.84144 12022 ft 281 kts 349°
2026-05-05 17:03 31.67034 -7.84297 12777 ft 284 kts 348°
2026-05-05 17:03 31.69012 -7.84448 13525 ft 287 kts 347°
2026-05-05 17:03 31.71013 -7.84599 14203 ft 290 kts 347°
2026-05-05 17:03 31.73044 -7.84750 14840 ft 293 kts 346°
2026-05-05 17:04 31.75091 -7.84903 15479 ft 296 kts 346°
2026-05-05 17:04 31.77157 -7.85059 16115 ft 300 kts 346°
2026-05-05 17:04 31.79266 -7.84917 16726 ft 317 kts
2026-05-05 17:04 31.81402 -7.83985 17300 ft 340 kts 21°
2026-05-05 17:05 31.83335 -7.82174 17445 ft 374 kts 44°
2026-05-05 17:05 31.85054 -7.79750 17600 ft 395 kts 46°
2026-05-05 17:05 31.86901 -7.77259 17749 ft 412 kts 44°
2026-05-05 17:05 31.88856 -7.74729 18167 ft 421 kts 44°
2026-05-05 17:06 31.90859 -7.72182 18658 ft 426 kts 43°
2026-05-05 17:06 31.92886 -7.69612 19154 ft 430 kts 43°
2026-05-05 17:06 31.94906 -7.67037 19638 ft 435 kts 43°
2026-05-05 17:06 31.96958 -7.64401 20145 ft 439 kts 43°
2026-05-05 17:07 31.99024 -7.61724 20655 ft 443 kts 44°
2026-05-05 17:07 32.01103 -7.59013 21134 ft 448 kts 44°
2026-05-05 17:07 32.03209 -7.56293 21641 ft 450 kts 41°
2026-05-05 17:07 32.05578 -7.53888 22145 ft 447 kts 30°
2026-05-05 17:08 32.08243 -7.52027 22654 ft 443 kts 18°
2026-05-05 17:08 32.11107 -7.50764 23135 ft 437 kts
2026-05-05 17:08 32.14077 -7.50104 23634 ft 430 kts 356°
2026-05-05 17:08 32.17038 -7.50002 24034 ft 426 kts 351°
2026-05-05 17:09 32.19973 -7.50029 24421 ft 429 kts 351°
2026-05-05 17:09 32.22967 -7.50056 24795 ft 432 kts 351°
2026-05-05 17:09 32.25984 -7.50081 25164 ft 435 kts 351°
2026-05-05 17:09 32.29014 -7.50101 25531 ft 438 kts 351°
2026-05-05 17:10 32.32084 -7.50120 25885 ft 441 kts 351°
2026-05-05 17:10 32.35172 -7.50138 26228 ft 444 kts 351°
2026-05-05 17:10 32.38275 -7.50155 26577 ft 447 kts 351°
2026-05-05 17:10 32.41394 -7.50171 26928 ft 451 kts 351°
2026-05-05 17:11 32.44549 -7.50188 27237 ft 454 kts 351°
2026-05-05 17:11 32.47725 -7.50209 27576 ft 457 kts 351°
2026-05-05 17:11 32.50919 -7.50233 27898 ft 460 kts 351°
2026-05-05 17:11 32.54132 -7.50256 28223 ft 463 kts 351°
2026-05-05 17:12 32.57363 -7.50278 28541 ft 466 kts 350°
2026-05-05 17:12 32.60572 -7.50300 28841 ft 468 kts 350°
2026-05-05 17:12 32.63881 -7.50323 29154 ft 471 kts 350°
2026-05-05 17:12 32.67123 -7.50352 29493 ft 473 kts 349°
2026-05-05 17:13 32.70424 -7.50381 29792 ft 475 kts 349°
2026-05-05 17:13 32.73744 -7.50407 30083 ft 478 kts 349°
2026-05-05 17:13 32.77080 -7.50425 30319 ft 480 kts 349°
2026-05-05 17:13 32.80430 -7.50441 30553 ft 482 kts 349°
2026-05-05 17:14 32.83793 -7.50458 30798 ft 483 kts 349°
2026-05-05 17:14 32.87160 -7.50479 31026 ft 484 kts 349°
2026-05-05 17:14 32.90543 -7.50500 31272 ft 485 kts 349°
2026-05-05 17:14 32.93876 -7.50518 31628 ft 484 kts 349°
2026-05-05 17:15 32.97241 -7.50532 32024 ft 480 kts 350°
2026-05-05 17:15 33.00580 -7.50544 32394 ft 478 kts 350°
2026-05-05 17:15 33.03905 -7.50560 32710 ft 476 kts 350°
2026-05-05 17:15 33.07227 -7.50584 33045 ft 475 kts 349°
2026-05-05 17:16 33.10512 -7.50502 33354 ft 482 kts 355°
2026-05-05 17:16 33.13864 -7.49878 33649 ft 493 kts
2026-05-05 17:16 33.17199 -7.48811 33948 ft 495 kts
2026-05-05 17:16 33.19399 -7.48089 34129 ft 495 kts
2026-05-05 17:17 33.22720 -7.46997 34393 ft 494 kts
2026-05-05 17:17 33.26031 -7.45910 34662 ft 493 kts
2026-05-05 17:17 33.29346 -7.44827 34922 ft 492 kts
2026-05-05 17:17 33.32648 -7.43750 35176 ft 491 kts
2026-05-05 17:18 33.35944 -7.42677 35427 ft 491 kts
2026-05-05 17:18 33.39241 -7.41600 35661 ft 490 kts
2026-05-05 17:18 33.42536 -7.40524 35893 ft 489 kts
2026-05-05 17:18 33.45814 -7.39449 36116 ft 489 kts
2026-05-05 17:19 33.49089 -7.38374 36450 ft 485 kts
2026-05-05 17:19 33.52301 -7.37316 36731 ft 483 kts
2026-05-05 17:19 33.55540 -7.36249 36948 ft 482 kts
2026-05-05 17:19 33.58782 -7.35184 37158 ft 481 kts
2026-05-05 17:20 33.62022 -7.34122 37346 ft 481 kts
2026-05-05 17:20 33.65255 -7.33063 37524 ft 481 kts
2026-05-05 17:20 33.68478 -7.32004 37705 ft 481 kts
2026-05-05 17:20 33.71680 -7.30951 37869 ft 481 kts
2026-05-05 17:21 33.74904 -7.29888 38051 ft 480 kts
2026-05-05 17:21 33.78125 -7.28821 38044 ft 479 kts
2026-05-05 17:22 33.87772 -7.25630 38051 ft 478 kts
2026-05-05 17:22 33.94183 -7.23503 38046 ft 478 kts
2026-05-05 17:23 34.00560 -7.21396 38067 ft 478 kts
2026-05-05 17:23 34.06979 -7.19265 38071 ft 478 kts
2026-05-05 17:24 34.13402 -7.17129 38078 ft 478 kts
2026-05-05 17:24 34.19829 -7.14991 38075 ft 478 kts
2026-05-05 17:25 34.26210 -7.12863 38075 ft 478 kts
2026-05-05 17:25 34.32608 -7.10725 38058 ft 474 kts
2026-05-05 17:26 34.38966 -7.08600 38065 ft 474 kts
2026-05-05 17:26 34.45340 -7.06464 38076 ft 474 kts
2026-05-05 17:27 34.51699 -7.04327 38073 ft 474 kts
2026-05-05 17:27 34.58069 -7.02180 38085 ft 474 kts 11°
2026-05-05 17:28 34.64166 -6.99014 38073 ft 481 kts 22°
2026-05-05 17:28 34.70114 -6.95350 38072 ft 481 kts 22°
2026-05-05 17:29 34.76094 -6.91680 38073 ft 481 kts 22°
2026-05-05 17:29 34.82093 -6.88001 38092 ft 481 kts 22°
2026-05-05 17:30 34.88028 -6.84343 38083 ft 480 kts 22°
2026-05-05 17:30 34.93996 -6.80661 38064 ft 479 kts 22°
2026-05-05 17:31 34.99926 -6.77009 38067 ft 479 kts 22°
2026-05-05 17:31 35.05885 -6.73318 38067 ft 479 kts 22°
2026-05-05 17:32 35.11849 -6.69620 38058 ft 478 kts 22°
2026-05-05 17:32 35.17763 -6.65948 38054 ft 478 kts 22°
2026-05-05 17:33 35.23687 -6.62268 38056 ft 478 kts 22°
2026-05-05 17:33 35.29619 -6.58583 38059 ft 478 kts 22°
2026-05-05 17:34 35.35569 -6.54872 38071 ft 479 kts 22°
2026-05-05 17:34 35.41478 -6.51173 38059 ft 478 kts 22°
2026-05-05 17:35 35.47407 -6.47433 38060 ft 479 kts 23°
2026-05-05 17:35 35.53275 -6.43611 38050 ft 479 kts 24°
2026-05-05 17:36 35.59163 -6.39728 38077 ft 479 kts 24°
2026-05-05 17:36 35.65046 -6.35867 38053 ft 479 kts 24°
2026-05-05 17:37 35.70939 -6.32012 38050 ft 478 kts 24°
2026-05-05 17:37 35.76790 -6.28188 38049 ft 478 kts 23°
2026-05-05 17:38 35.82669 -6.24357 38053 ft 478 kts 23°
2026-05-05 17:38 35.88565 -6.20531 38046 ft 477 kts 23°
2026-05-05 17:39 35.94461 -6.16739 38045 ft 477 kts 23°
2026-05-05 17:39 36.00315 -6.12956 38044 ft 477 kts 23°
2026-05-05 17:40 36.06209 -6.09124 38044 ft 477 kts 23°
2026-05-05 17:40 36.12062 -6.05302 38059 ft 478 kts 23°
2026-05-05 17:41 36.17950 -6.01464 38054 ft 477 kts 23°
2026-05-05 17:41 36.23927 -5.97994 38044 ft 470 kts 12°
2026-05-05 17:42 36.30262 -5.96442 38036 ft 461 kts
2026-05-05 17:42 36.36618 -5.95329 38050 ft 462 kts
2026-05-05 17:43 36.42983 -5.94188 38041 ft 462 kts
2026-05-05 17:43 36.49351 -5.93047 38027 ft 462 kts
2026-05-05 17:44 36.55708 -5.91927 38025 ft 462 kts
2026-05-05 17:44 36.62025 -5.90804 38023 ft 461 kts
2026-05-05 17:45 36.68363 -5.89665 38014 ft 460 kts
2026-05-05 17:45 36.74703 -5.88528 38018 ft 460 kts
2026-05-05 17:46 36.81044 -5.87395 38019 ft 460 kts
2026-05-05 17:46 36.87389 -5.86261 38031 ft 460 kts
2026-05-05 17:47 36.93735 -5.85118 38020 ft 460 kts
2026-05-05 17:47 37.00074 -5.83968 38006 ft 460 kts
2026-05-05 17:48 37.06372 -5.82828 37999 ft 460 kts
2026-05-05 17:48 37.12703 -5.81681 37984 ft 458 kts
2026-05-05 17:49 37.19012 -5.80541 37979 ft 458 kts
2026-05-05 17:49 37.25322 -5.79407 37983 ft 458 kts
2026-05-05 17:50 37.31627 -5.78264 37972 ft 458 kts
2026-05-05 17:50 37.37947 -5.77109 37983 ft 458 kts
2026-05-05 17:51 37.44199 -5.75296 37974 ft 469 kts 16°
2026-05-05 17:51 37.50123 -5.71802 37976 ft 472 kts 20°
2026-05-05 17:52 37.56053 -5.68197 37969 ft 473 kts 20°
2026-05-05 17:52 37.61941 -5.64627 37967 ft 472 kts 20°
2026-05-05 17:53 37.67858 -5.61042 37982 ft 472 kts 20°
2026-05-05 17:53 37.73785 -5.57437 37984 ft 472 kts 20°
2026-05-05 17:54 37.79706 -5.53830 37991 ft 472 kts 20°
2026-05-05 17:54 37.85638 -5.50212 38004 ft 473 kts 20°
2026-05-05 17:55 37.91563 -5.46584 37995 ft 473 kts 19°
2026-05-05 17:55 37.97487 -5.42953 37996 ft 473 kts 20°
2026-05-05 17:56 38.03380 -5.39335 37996 ft 473 kts 20°
2026-05-05 17:56 38.09308 -5.35689 37998 ft 473 kts 19°
2026-05-05 17:57 38.15233 -5.32044 37968 ft 473 kts 19°
2026-05-05 17:57 38.21157 -5.28395 37975 ft 473 kts 19°
2026-05-05 17:58 38.27094 -5.24727 37980 ft 474 kts 20°
2026-05-05 17:58 38.33035 -5.21044 37987 ft 475 kts 20°
2026-05-05 17:59 38.38981 -5.17347 37989 ft 475 kts 20°
2026-05-05 17:59 38.44915 -5.13646 37991 ft 475 kts 20°
2026-05-05 18:00 38.49971 -5.11219 37990 ft 462 kts
2026-05-05 18:00 38.56239 -5.10538 38000 ft 444 kts 348°
2026-05-05 18:01 38.63362 -5.11264 37980 ft 442 kts 348°
2026-05-05 18:01 38.68501 -5.11779 37981 ft 442 kts 348°
2026-05-05 18:02 38.74645 -5.12405 37986 ft 443 kts 348°
2026-05-05 18:02 38.80757 -5.13025 38009 ft 443 kts 348°
2026-05-05 18:03 38.86902 -5.13653 37995 ft 443 kts 348°
2026-05-05 18:03 38.93074 -5.14115 37656 ft 450 kts 356°
2026-05-05 18:03 38.96201 -5.13465 36935 ft 463 kts
2026-05-05 18:04 38.99197 -5.11907 36118 ft 477 kts 23°
2026-05-05 18:04 39.01958 -5.09430 35239 ft 493 kts 37°
2026-05-05 18:04 39.04284 -5.06094 34227 ft 510 kts 52°
2026-05-05 18:04 39.06195 -5.02200 33323 ft 514 kts 54°
2026-05-05 18:05 39.08054 -4.98307 32713 ft 508 kts 54°
2026-05-05 18:05 39.09892 -4.94448 32012 ft 505 kts 54°
2026-05-05 18:05 39.11730 -4.90596 31313 ft 503 kts 54°
2026-05-05 18:05 39.13560 -4.86774 30636 ft 500 kts 54°
2026-05-05 18:06 39.15383 -4.82967 29942 ft 496 kts 54°
2026-05-05 18:06 39.16569 -4.80483 29440 ft 488 kts 54°
2026-05-05 18:06 39.18956 -4.75628 28616 ft 469 kts 49°
2026-05-05 18:06 39.21020 -4.72495 28097 ft 449 kts 39°
2026-05-05 18:07 39.23207 -4.69687 27566 ft 437 kts 39°
2026-05-05 18:07 39.25328 -4.66950 27082 ft 426 kts 39°
2026-05-05 18:07 39.27396 -4.64267 26611 ft 417 kts 39°
2026-05-05 18:07 39.29413 -4.61644 26144 ft 407 kts 39°
2026-05-05 18:08 39.31390 -4.59071 25710 ft 402 kts 39°
2026-05-05 18:08 39.33334 -4.56544 25291 ft 401 kts 39°
2026-05-05 18:08 39.35303 -4.53992 24848 ft 399 kts 38°
2026-05-05 18:08 39.37265 -4.51453 24415 ft 399 kts 38°
2026-05-05 18:09 39.39223 -4.48914 23976 ft 397 kts 38°
2026-05-05 18:09 39.41165 -4.46388 23532 ft 396 kts 39°
2026-05-05 18:09 39.43098 -4.43870 23032 ft 394 kts 39°
2026-05-05 18:09 39.45028 -4.41357 22581 ft 391 kts 38°
2026-05-05 18:10 39.46941 -4.38864 22134 ft 389 kts 39°
2026-05-05 18:10 39.48840 -4.36384 21680 ft 386 kts 39°
2026-05-05 18:10 39.50727 -4.33918 21247 ft 385 kts 38°
2026-05-05 18:10 39.52614 -4.31453 20751 ft 386 kts 39°
2026-05-05 18:11 39.54509 -4.28978 20201 ft 388 kts 39°
2026-05-05 18:11 39.56406 -4.26498 19670 ft 388 kts 39°
2026-05-05 18:11 39.58305 -4.24010 19137 ft 388 kts 39°
2026-05-05 18:11 39.60210 -4.21516 18607 ft 388 kts 39°
2026-05-05 18:12 39.62109 -4.19024 18043 ft 389 kts 40°
2026-05-05 18:12 39.64006 -4.16526 17483 ft 387 kts 40°
2026-05-05 18:12 39.65860 -4.14078 17051 ft 382 kts 40°
2026-05-05 18:12 39.67725 -4.11619 16511 ft 381 kts 41°
2026-05-05 18:13 39.69576 -4.09182 15974 ft 379 kts 41°
2026-05-05 18:13 39.71419 -4.06753 15582 ft 375 kts 41°
2026-05-05 18:13 39.73238 -4.04350 15126 ft 372 kts 42°
2026-05-05 18:13 39.75042 -4.01965 14773 ft 367 kts 43°
2026-05-05 18:14 39.76803 -3.99631 14630 ft 354 kts 43°
2026-05-05 18:14 39.78472 -3.97412 14509 ft 331 kts 43°
2026-05-05 18:14 39.80031 -3.95334 14386 ft 310 kts 42°
2026-05-05 18:14 39.81494 -3.93388 14196 ft 293 kts 42°
2026-05-05 18:15 39.82903 -3.91520 13797 ft 287 kts 42°
2026-05-05 18:15 39.84296 -3.89679 13295 ft 283 kts 42°
2026-05-05 18:15 39.85660 -3.87877 12966 ft 278 kts 42°
2026-05-05 18:15 39.86995 -3.86113 12676 ft 276 kts 42°
2026-05-05 18:16 39.88337 -3.84338 12379 ft 274 kts 42°
2026-05-05 18:16 39.89679 -3.82562 12085 ft 275 kts 43°
2026-05-05 18:16 39.91015 -3.80785 11774 ft 273 kts 43°
2026-05-05 18:16 39.92344 -3.79013 11493 ft 272 kts 43°
2026-05-05 18:17 39.93666 -3.77251 11200 ft 270 kts 43°
2026-05-05 18:17 39.94979 -3.75500 10907 ft 269 kts 43°
2026-05-05 18:17 39.96268 -3.73784 10622 ft 267 kts 43°
2026-05-05 18:17 39.97567 -3.72055 10342 ft 266 kts 43°
2026-05-05 18:18 39.98855 -3.70336 10054 ft 264 kts 44°
2026-05-05 18:18 40.00132 -3.68623 9763 ft 262 kts 43°
2026-05-05 18:18 40.01400 -3.66922 9470 ft 261 kts 43°
2026-05-05 18:18 40.02665 -3.65227 9181 ft 259 kts 43°
2026-05-05 18:19 40.03907 -3.63562 8895 ft 258 kts 43°
2026-05-05 18:19 40.05159 -3.61886 8620 ft 256 kts 43°
2026-05-05 18:19 40.06403 -3.60220 8348 ft 256 kts 43°
2026-05-05 18:19 40.07646 -3.58557 8072 ft 255 kts 42°
2026-05-05 18:20 40.08885 -3.56902 7808 ft 253 kts 42°
2026-05-05 18:20 40.10113 -3.55259 7540 ft 252 kts 42°
2026-05-05 18:20 40.11323 -3.53635 7275 ft 251 kts 42°
2026-05-05 18:20 40.12537 -3.52001 7003 ft 250 kts 42°
2026-05-05 18:21 40.13741 -3.50379 6734 ft 248 kts 42°
2026-05-05 18:21 40.14943 -3.48760 6466 ft 247 kts 43°
2026-05-05 18:21 40.16143 -3.47144 6192 ft 246 kts 42°
2026-05-05 18:21 40.17342 -3.45554 5918 ft 244 kts 41°
2026-05-05 18:22 40.18584 -3.44045 5587 ft 242 kts 38°
2026-05-05 18:22 40.19839 -3.42581 5274 ft 242 kts 38°
2026-05-05 18:22 40.21127 -3.41219 4964 ft 239 kts 27°
2026-05-05 18:22 40.22572 -3.40177 4621 ft 236 kts 25°
2026-05-05 18:23 40.24015 -3.39157 4280 ft 236 kts 23°
2026-05-05 18:23 40.25551 -3.38548 4035 ft 227 kts
2026-05-05 18:23 40.27111 -3.38580 4002 ft 224 kts 348°
2026-05-05 18:23 40.28637 -3.38855 4006 ft 216 kts 349°
2026-05-05 18:24 40.30078 -3.39243 4002 ft 203 kts 334°
2026-05-05 18:24 40.31238 -3.40137 4004 ft 188 kts 319°
2026-05-05 18:24 40.32268 -3.41183 4006 ft 186 kts 320°
2026-05-05 18:24 40.33275 -3.42199 4006 ft 184 kts 320°
2026-05-05 18:25 40.34286 -3.43220 4017 ft 181 kts 320°
2026-05-05 18:25 40.34938 -3.43878 4028 ft 168 kts 320°
2026-05-05 18:25 40.36067 -3.45017 3999 ft 144 kts 320°
2026-05-05 18:25 40.36844 -3.45803 4003 ft 138 kts 320°
2026-05-05 18:26 40.37600 -3.46568 3996 ft 136 kts 320°
2026-05-05 18:26 40.38350 -3.47327 3887 ft 135 kts 320°
2026-05-05 18:26 40.39092 -3.48078 3740 ft 134 kts 320°
2026-05-05 18:26 40.39834 -3.48829 3573 ft 135 kts 320°
2026-05-05 18:27 40.40575 -3.49579 3407 ft 134 kts 320°
2026-05-05 18:27 40.41307 -3.50320 3232 ft 133 kts 320°
2026-05-05 18:27 40.42040 -3.51062 3050 ft 134 kts 320°
2026-05-05 18:27 40.42785 -3.51817 2838 ft 137 kts 320°
2026-05-05 18:28 40.44265 -3.53329 2473 ft 136 kts 320°
2026-05-05 18:28 40.45009 -3.54073 2303 ft 132 kts 320°
2026-05-05 18:28 40.45750 -3.54813 2127 ft 135 kts 319°
2026-05-05 18:29 40.46480 -3.55559 1987 ft 131 kts 320°
2026-05-05 18:29 40.47137 -3.56233 1982 ft 105 kts 321°
2026-05-05 18:29 40.47588 -3.56686 1995 ft 60 kts 322°
2026-05-05 18:29 40.47755 -3.56913 1997 ft 23 kts 297°
2026-05-05 18:30 40.47799 -3.57087 2000 ft 16 kts 249°
2026-05-05 18:30 40.47704 -3.57080 1998 ft 14 kts 152°
2026-05-05 18:30 40.47635 -3.57100 1997 ft 12 kts 271°
2026-05-05 18:30 40.47689 -3.57178 1999 ft 12 kts 322°
2026-05-05 18:31 40.47754 -3.57242 2001 ft 12 kts 322°
2026-05-05 18:31 40.47820 -3.57311 2003 ft 12 kts 322°
2026-05-05 18:31 40.47890 -3.57381 2002 ft 13 kts 322°
2026-05-05 18:31 40.47971 -3.57466 2003 ft 17 kts 322°
2026-05-05 18:32 40.48074 -3.57568 2000 ft 20 kts 322°
2026-05-05 18:32 40.48193 -3.57691 1996 ft 23 kts 321°
2026-05-05 18:32 40.48328 -3.57830 1992 ft 26 kts 324°
2026-05-05 18:32 40.48473 -3.57957 1995 ft 19 kts 328°
2026-05-05 18:33 40.48512 -3.58084 2004 ft 14 kts 270°
2026-05-05 18:33 40.48510 -3.58202 2008 ft 12 kts 267°
2026-05-05 18:33 40.48510 -3.58309 2010 ft 13 kts 271°
2026-05-05 18:33 40.48510 -3.58448 2014 ft 17 kts 270°
2026-05-05 18:34 40.48510 -3.58629 2022 ft 22 kts 269°
2026-05-05 18:34 40.48547 -3.58807 2024 ft 19 kts 347°
2026-05-05 18:34 40.48685 -3.58810 2030 ft 22 kts 359°
2026-05-05 18:34 40.48839 -3.58811 2022 ft 19 kts 358°
2026-05-05 18:35 40.48884 -3.58822 2027 ft 7 kts 324°
2026-05-05 18:35 40.48881 -3.58915 2022 ft 8 kts 251°
2026-05-05 18:35 40.48878 -3.58944 2027 ft 5 kts 271°
2026-05-05 18:35 40.48878 -3.58967 2022 ft 0 kts 271°